Location: Clyde
(45.1830°S, 169.3170°E)
Time: 06:44:54
(UTC+13:00)

Cosmos 2333 Rocket - Pass Details

Date: 24 January 2019
Orbit: 840 x 862 km, 70.8° (Epoch: 18 February)

Event Time Altitude Azimuth Distance (km) Brightness Sun altitude
Exits shadow 23:35:02 30° 51° (NE) 1,515 3.0 -18.2°
Maximum altitude 23:36:17 33° 75° (ENE) 1,428 3.0 -18.3°
Drops below altitude 10° 23:41:24 10° 137° (SE) 2,527 4.8 -18.8°
Sets 23:44:05 0° 146° (SE) 3,468 5.7 -19.1°
